Location: Catstown
(52.4386°N, 7.2633°W)
Time: 04:32:39
(UTC+00:00)

Cosmos 1269 Rocket - Pass Details

Date: 18 September 2020
Orbit: 772 x 780 km, 74.1° (Epoch: 20 October)

Event Time Altitude Azimuth Distance (km) Brightness Sun altitude
Rises 21:13:06 0° 333° (NNW) 3,275 8.3 -23.1°
Reaches altitude 10° 21:15:30 10° 332° (NNW) 2,344 7.4 -23.4°
Maximum altitude 21:20:49 76° 248° (WSW) 810 4.1 -24.0°
Enters shadow 21:21:57 55° 180° (S) 934 4.1 -24.2°
